This is the latest recevied weather packets stored in our database for station/object CT2HRB-13. If no packets are shown the sender has not sent any weather packets the latest 10 day(s).
| Time | Temp. | Humidity | Pressure | Rain* | Wind** | Luminosity | Snow |
|---|---|---|---|---|---|---|---|
| 1777399802 | 17.22° C | 79% | 1007 hPa | - | - | - | - |
| 1777399502 | 17.22° C | 79% | 1007 hPa | - | - | - | - |
| 1777399202 | 17.78° C | 78% | 1007.1 hPa | - | - | - | - |
| 1777398902 | 17.78° C | 78% | 1006.9 hPa | - | - | - | - |
| 1777398602 | 17.78° C | 77% | 1007 hPa | - | - | - | - |
| 1777398301 | 17.78° C | 77% | 1007 hPa | - | - | - | - |
| 1777398001 | 18.33° C | 77% | 1007 hPa | - | - | - | - |
| 1777397701 | 18.33° C | 76% | 1006.9 hPa | - | - | - | - |
| 1777397402 | 18.33° C | 76% | 1006.7 hPa | - | - | - | - |
| 1777397101 | 18.33° C | 75% | 1007.1 hPa | - | - | - | - |
| 1777396802 | 18.89° C | 74% | 1006.9 hPa | - | - | - | - |
| 1777396502 | 18.89° C | 73% | 1006.9 hPa | - | - | - | - |
| 1777396201 | 19.44° C | 73% | 1006.9 hPa | - | - | - | - |
| 1777395902 | 20° C | 72% | 1007.1 hPa | - | - | - | - |
| 1777395602 | 20° C | 72% | 1007.2 hPa | - | - | - | - |
| 1777395301 | 20° C | 71% | 1007.1 hPa | - | - | - | - |
| 1777395002 | 20.56° C | 70% | 1006.9 hPa | - | - | - | - |
| 1777394702 | 21.11° C | 70% | 1006.8 hPa | - | - | - | - |
| 1777394402 | 21.11° C | 68% | 1006.8 hPa | - | - | - | - |
| 1777394102 | 21.67° C | 68% | 1006.9 hPa | - | - | - | - |
| 1777393802 | 21.67° C | 67% | 1007 hPa | - | - | - | - |
| 1777393502 | 22.22° C | 67% | 1007 hPa | - | - | - | - |
| 1777393202 | 22.22° C | 66% | 1007.1 hPa | - | - | - | - |
| 1777392902 | 23.33° C | 64% | 1007.1 hPa | - | - | - | - |
| 1777392601 | 23.33° C | 63% | 1007 hPa | - | - | - | - |
* Rain since midnight (hover to see other rain measurements)
** Current wind speed in m/s (hover to see current wind gust speed)